Welcome to Des Moines Iowa Weather. I am an independent private personal weather station on the Northwest Side of Des Moines, Iowa. Just East of Windsor Heights and just West of Glendale . This site is also mobile friendly.

There are no active watches, warnings or advisories


Visit our other weather sites:

Historical Data

Weather Station Setup



Weather Underground History page Text

Daily Summary for March 29, 2017 Units:  English    Metric   Both
« Previous Day
Next Day »
Daily Weekly Monthly Yearly Custom
  High: Low: Average:
Temperature: 48.3 °F 40.8 °F 43.4 °F
Dew Point: 45.0 °F 39.0 °F 41.8 °F
Humidity: 96 % 89 % 93 %
Wind Speed: 16.0 mph 0.0 mph 4.1 mph
Wind Gust: 23.0 mph - -
Wind:- - East
Pressure: 30.12 in 29.79 in -
Precipitation: 1.42 in    
Historical Graphs
 
 
Tabular Data for March 29, 2017
Time Temperature Dew Point Pressure Wind Wind Speed Wind Gust Humidity Rainfall Rate (Hourly)
00:10 48.3 °F 45.0 °F 30.12 in East 2.0 mph 7.0 mph 89 % 0.00 in
00:25 48.3 °F 45.0 °F 30.11 in Calm   2.0 mph 89 % 0.00 in
00:40 48.1 °F 45.0 °F 30.10 in Calm   4.0 mph 90 % 0.00 in
00:55 47.9 °F 45.0 °F 30.10 in Calm   6.0 mph 90 % 0.00 in
01:10 47.8 °F 45.0 °F 30.09 in Calm   6.0 mph 90 % 0.00 in
01:25 47.7 °F 45.0 °F 30.10 in Calm   4.0 mph 90 % 0.00 in
01:40 47.5 °F 45.0 °F 30.10 in Calm   4.0 mph 90 % 0.00 in
01:55 47.2 °F 45.0 °F 30.10 in Calm   5.0 mph 90 % 0.00 in
02:10 47.1 °F 44.0 °F 30.10 in Calm   6.0 mph 89 % 0.00 in
02:25 47.0 °F 44.0 °F 30.10 in Calm   8.0 mph 89 % 0.00 in
02:40 46.8 °F 44.0 °F 30.11 in Calm   4.0 mph 89 % 0.00 in
02:55 46.6 °F 44.0 °F 30.10 in ENE 3.0 mph 5.0 mph 89 % 0.00 in
03:10 46.3 °F 43.0 °F 30.09 in East 3.0 mph 5.0 mph 89 % 0.00 in
03:25 45.9 °F 43.0 °F 30.09 in Calm   7.0 mph 89 % 0.00 in
03:40 45.5 °F 43.0 °F 30.11 in Calm   2.0 mph 89 % 0.00 in
03:56 45.3 °F 42.0 °F 30.10 in Calm   4.0 mph 89 % 0.00 in
04:10 44.9 °F 42.0 °F 30.09 in ESE 4.0 mph 8.0 mph 89 % 0.00 in
04:26 44.6 °F 42.0 °F 30.07 in ENE 2.0 mph 8.0 mph 89 % 0.00 in
04:41 44.2 °F 41.0 °F 30.08 in Calm   8.0 mph 89 % 0.00 in
04:56 44.0 °F 41.0 °F 30.09 in East 3.0 mph 5.0 mph 89 % 0.00 in
05:11 43.8 °F 41.0 °F 30.09 in East 2.0 mph 8.0 mph 89 % 0.00 in
05:26 43.7 °F 41.0 °F 30.09 in East 4.0 mph 10.0 mph 89 % 0.00 in
05:41 43.6 °F 41.0 °F 30.09 in East 4.0 mph 9.0 mph 89 % 0.00 in
05:56 43.6 °F 41.0 °F 30.09 in Calm   6.0 mph 89 % 0.00 in
06:11 43.7 °F 41.0 °F 30.10 in ENE 3.0 mph 9.0 mph 89 % 0.00 in
06:26 43.7 °F 41.0 °F 30.11 in SE 1.0 mph 7.0 mph 89 % 0.00 in
06:41 43.7 °F 41.0 °F 30.10 in East 2.0 mph 6.0 mph 89 % 0.00 in
06:56 43.7 °F 41.0 °F 30.09 in Calm   8.0 mph 89 % 0.00 in
07:11 43.7 °F 41.0 °F 30.09 in East 3.0 mph 8.0 mph 89 % 0.00 in
07:26 43.7 °F 41.0 °F 30.07 in ESE 1.0 mph 11.0 mph 89 % 0.00 in
07:41 43.7 °F 41.0 °F 30.08 in ENE 8.0 mph 12.0 mph 90 % 0.00 in
07:56 43.3 °F 41.0 °F 30.06 in East 5.0 mph 11.0 mph 91 % 0.01 in
08:11 43.1 °F 41.0 °F 30.06 in ENE 2.0 mph 10.0 mph 92 % 0.02 in
08:26 42.8 °F 41.0 °F 30.07 in ENE 2.0 mph 8.0 mph 93 % 0.03 in
08:41 42.5 °F 41.0 °F 30.06 in ENE 5.0 mph 12.0 mph 93 % 0.06 in
08:56 42.3 °F 41.0 °F 30.05 in ENE 3.0 mph 9.0 mph 93 % 0.09 in
09:11 41.9 °F 40.0 °F 30.05 in ESE 4.0 mph 12.0 mph 94 % 0.12 in
09:26 41.4 °F 40.0 °F 30.05 in ESE 11.0 mph 16.0 mph 94 % 0.13 in
09:41 41.1 °F 40.0 °F 30.06 in East 3.0 mph 14.0 mph 94 % 0.12 in
09:56 40.8 °F 39.0 °F 30.05 in ENE 3.0 mph 11.0 mph 94 % 0.10 in
10:11 40.9 °F 39.0 °F 30.05 in East 1.0 mph 8.0 mph 94 % 0.06 in
10:26 41.0 °F 39.0 °F 30.05 in ESE 9.0 mph 11.0 mph 94 % 0.04 in
10:42 41.0 °F 40.0 °F 30.06 in East 1.0 mph 13.0 mph 95 % 0.02 in
10:56 41.2 °F 40.0 °F 30.05 in ENE 4.0 mph 9.0 mph 95 % 0.01 in
11:11 41.4 °F 40.0 °F 30.04 in East 7.0 mph 10.0 mph 95 % 0.04 in
11:26 41.6 °F 40.0 °F 30.03 in East 3.0 mph 10.0 mph 95 % 0.06 in
11:41 41.8 °F 41.0 °F 30.02 in ENE 4.0 mph 12.0 mph 95 % 0.08 in
11:56 42.0 °F 41.0 °F 30.00 in ENE 2.0 mph 10.0 mph 95 % 0.10 in
12:11 42.1 °F 41.0 °F 30.01 in ENE 7.0 mph 11.0 mph 96 % 0.10 in
12:26 42.2 °F 41.0 °F 29.99 in ENE 3.0 mph 12.0 mph 96 % 0.10 in
12:42 42.2 °F 41.0 °F 29.98 in ENE 2.0 mph 12.0 mph 96 % 0.11 in
12:57 41.9 °F 41.0 °F 29.97 in ENE 5.0 mph 13.0 mph 96 % 0.11 in
13:12 41.9 °F 41.0 °F 29.97 in East 1.0 mph 14.0 mph 96 % 0.10 in
13:28 41.9 °F 41.0 °F 29.95 in East 7.0 mph 14.0 mph 96 % 0.11 in
13:42 41.9 °F 41.0 °F 29.96 in East 7.0 mph 11.0 mph 96 % 0.11 in
13:57 42.2 °F 41.0 °F 29.93 in East 3.0 mph 11.0 mph 96 % 0.14 in
14:12 42.5 °F 42.0 °F 29.92 in East 8.0 mph 14.0 mph 96 % 0.16 in
14:27 42.8 °F 42.0 °F 29.91 in ESE 12.0 mph 16.0 mph 96 % 0.18 in
14:42 43.1 °F 42.0 °F 29.90 in SE 11.0 mph 17.0 mph 96 % 0.18 in
14:57 43.1 °F 42.0 °F 29.89 in South 4.0 mph 15.0 mph 96 % 0.17 in
15:12 43.2 °F 42.0 °F 29.89 in ENE 5.0 mph 12.0 mph 96 % 0.16 in
15:27 43.3 °F 42.0 °F 29.89 in East 3.0 mph 13.0 mph 96 % 0.18 in
15:42 43.3 °F 42.0 °F 29.89 in ENE 5.0 mph 12.0 mph 96 % 0.17 in
15:57 43.3 °F 42.0 °F 29.88 in East 5.0 mph 14.0 mph 96 % 0.17 in
16:12 43.2 °F 42.0 °F 29.88 in East 7.0 mph 17.0 mph 96 % 0.13 in
16:27 42.8 °F 42.0 °F 29.89 in East 3.0 mph 14.0 mph 96 % 0.07 in
16:42 42.6 °F 42.0 °F 29.88 in ESE 4.0 mph 13.0 mph 96 % 0.06 in
16:57 42.6 °F 42.0 °F 29.89 in ENE 3.0 mph 13.0 mph 96 % 0.03 in
17:12 42.9 °F 42.0 °F 29.89 in East 4.0 mph 13.0 mph 96 % 0.05 in
17:27 43.0 °F 42.0 °F 29.89 in East 3.0 mph 15.0 mph 96 % 0.06 in
17:42 43.1 °F 42.0 °F 29.89 in East 4.0 mph 12.0 mph 96 % 0.05 in
17:57 43.2 °F 42.0 °F 29.89 in East 7.0 mph 14.0 mph 96 % 0.04 in
18:12 43.3 °F 42.0 °F 29.89 in ENE 9.0 mph 15.0 mph 96 % 0.02 in
18:27 43.2 °F 42.0 °F 29.89 in ENE 5.0 mph 14.0 mph 96 % 0.01 in
18:42 43.2 °F 42.0 °F 29.89 in ENE 5.0 mph 12.0 mph 96 % 0.02 in
18:57 43.1 °F 42.0 °F 29.88 in ENE 10.0 mph 18.0 mph 96 % 0.02 in
19:12 42.9 °F 42.0 °F 29.87 in East 11.0 mph 15.0 mph 96 % 0.02 in
19:27 42.8 °F 42.0 °F 29.86 in South 10.0 mph 17.0 mph 96 % 0.02 in
19:42 42.8 °F 42.0 °F 29.86 in East 10.0 mph 17.0 mph 96 % 0.01 in
19:57 42.8 °F 42.0 °F 29.86 in ESE 9.0 mph 12.0 mph 96 % 0.01 in
20:12 42.8 °F 42.0 °F 29.86 in NE 2.0 mph 17.0 mph 96 % 0.00 in
20:27 42.8 °F 42.0 °F 29.86 in East 3.0 mph 14.0 mph 96 % 0.01 in
20:42 42.6 °F 42.0 °F 29.85 in ESE 3.0 mph 16.0 mph 96 % 0.01 in
20:57 42.6 °F 42.0 °F 29.87 in ESE 2.0 mph 19.0 mph 96 % 0.01 in
21:12 42.6 °F 42.0 °F 29.93 in WNW 4.0 mph 9.0 mph 96 % 0.08 in
21:27 42.6 °F 42.0 °F 29.91 in East 4.0 mph 10.0 mph 96 % 0.17 in
21:42 42.6 °F 42.0 °F 29.92 in SE 3.0 mph 6.0 mph 96 % 0.24 in
21:57 42.6 °F 42.0 °F 29.90 in East 3.0 mph 12.0 mph 96 % 0.31 in
22:12 42.4 °F 41.0 °F 29.85 in ESE 7.0 mph 16.0 mph 96 % 0.30 in
22:27 42.2 °F 41.0 °F 29.79 in SE 7.0 mph 23.0 mph 96 % 0.24 in
22:42 42.1 °F 41.0 °F 29.83 in ESE 8.0 mph 16.0 mph 96 % 0.17 in
22:57 41.9 °F 41.0 °F 29.83 in East 16.0 mph 16.0 mph 96 % 0.09 in
23:12 41.7 °F 41.0 °F 29.82 in East 8.0 mph 16.0 mph 96 % 0.03 in
23:27 41.8 °F 41.0 °F 29.81 in ENE 11.0 mph 14.0 mph 96 % 0.00 in
23:42 41.8 °F 41.0 °F 29.80 in ESE 2.0 mph 16.0 mph 96 % 0.00 in
23:57 42.0 °F 41.0 °F 29.80 in ESE 2.0 mph 16.0 mph 96 % 0.00 in
Des Moines Weather and Climate
Compliments of Weather Underground - 3 mb

Script developed by  Jim McMurry - jmcmurry@mwt.net Adapted for the template by  Wim van der Kuil - Leuven-Template.eu

You find our weather info also at:

Weather Underground

Equipment we use:

Weather-station
Davis VP2 Plus

Weather-program
Davis Weatherlink.Com

Weather-server
iMac (Retina 4K, 21.5-inch, Late 2015)

Provider
Hostmonster.com

Davis VP2 Plus

Davis Weatherlink.Com

iMac (Retina 4K, 21.5-inch, Late 2015)

Hostmonster.com